| time (UTC) | temp F | wind direction | speed MPH | gust MPH | rain 1hr in | rain 24hr in | rain mn in | humidity % | barometer mb |
| 20260508133036 | 58 | 249 | 0.0 | 6.0 | 0.00 | 0.00 | 0.00 | 51 | 1013.1 |
| 20260508131535 | 57 | 332 | 0.0 | 4.0 | 0.00 | 0.00 | 0.00 | 55 | 1013.2 |
| 20260508130030 | 56 | 305 | 1.0 | 4.0 | 0.00 | 0.00 | 0.00 | 55 | 1013.3 |
| 20260508124529 | 55 | 58 | 0.0 | 4.0 | 0.00 | 0.00 | 0.00 | 57 | 1013.3 |
| 20260508123026 | 54 | 338 | 0.0 | 4.0 | 0.00 | 0.00 | 0.00 | 60 | 1013.3 |
| 20260508121534 | 54 | 324 | 1.0 | 5.0 | 0.00 | 0.00 | 0.00 | 60 | 1013.4 |
| 20260508120022 | 54 | 213 | 0.0 | 1.0 | 0.00 | 0.00 | 0.00 | 63 | 1013.3 |
| 20260508114519 | 53 | 293 | 0.0 | 3.0 | 0.00 | 0.00 | 0.00 | 63 | 1013.2 |
| 20260508113106 | 52 | 217 | 0.0 | 2.0 | 0.00 | 0.00 | 0.00 | 67 | 1013.1 |
| 20260508111558 | 50 | 101 | 0.0 | 2.0 | 0.00 | 0.00 | 0.00 | 65 | 1013.1 |
| 20260508110035 | 47 | 14 | 0.0 | 4.0 | 0.00 | 0.00 | 0.00 | 70 | 1013.1 |
| 20260508104534 | 45 | 250 | 0.0 | 0.0 | 0.00 | 0.00 | 0.00 | 73 | 1013.0 |
| 20260508103014 | 45 | 250 | 0.0 | 0.0 | 0.00 | 0.00 | 0.00 | 73 | 1012.9 |
| 20260508101512 | 45 | 250 | 0.0 | 0.0 | 0.00 | 0.00 | 0.00 | 73 | 1012.6 |
| 20260508100013 | 46 | 250 | 0.0 | 0.0 | 0.00 | 0.04 | 0.00 | 71 | 1012.3 |
| 20260508094509 | 46 | 250 | 0.0 | 0.0 | 0.00 | 0.04 | 0.00 | 70 | 1012.2 |
| 20260508093009 | 47 | 257 | 0.0 | 3.0 | 0.00 | 0.04 | 0.00 | 63 | 1012.2 |
| 20260508091509 | 47 | 106 | 0.0 | 1.0 | 0.00 | 0.04 | 0.00 | 62 | 1012.2 |
| 20260508090006 | 48 | 49 | 0.0 | 2.0 | 0.00 | 0.09 | 0.00 | 60 | 1012.4 |
| 20260508084507 | 48 | 310 | 0.0 | 3.0 | 0.00 | 0.09 | 0.00 | 61 | 1012.3 |
| 20260508083048 | 47 | 341 | 0.0 | 6.0 | 0.00 | 0.09 | 0.00 | 60 | 1012.2 |
| 20260508081608 | 47 | 208 | 0.0 | 2.0 | 0.00 | 0.09 | 0.00 | 63 | 1012.1 |
| 20260508080027 | 46 | 2 | 0.0 | 2.0 | 0.00 | 0.16 | 0.00 | 67 | 1012.0 |
| 20260508074529 | 47 | 340 | 0.0 | 1.0 | 0.00 | 0.16 | 0.00 | 67 | 1012.0 |
| 20260508073007 | 46 | 9 | 0.0 | 8.0 | 0.00 | 0.16 | 0.00 | 66 | 1012.1 |
| 20260508071507 | 45 | 350 | 0.0 | 3.0 | 0.00 | 0.16 | 0.00 | 70 | 1012.3 |
| 20260508070044 | 44 | 101 | 0.0 | 1.0 | 0.00 | 0.24 | 0.00 | 74 | 1011.8 |
| 20260508064539 | 43 | 72 | 0.0 | 0.0 | 0.00 | 0.24 | 0.00 | 79 | 1011.4 |
| 20260508063030 | 42 | 114 | 0.0 | 0.0 | 0.00 | 0.24 | 0.00 | 81 | 1011.0 |
| 20260508061517 | 42 | 177 | 0.0 | 0.0 | 0.00 | 0.24 | 0.00 | 82 | 1010.9 |
| 20260508060105 | 42 | 177 | 0.0 | 0.0 | 0.00 | 0.24 | 0.00 | 83 | 1010.6 |
| 20260508054555 | 41 | 177 | 0.0 | 0.0 | 0.00 | 0.24 | 0.00 | 85 | 1010.6 |
| 20260508053039 | 40 | 177 | 0.0 | 0.0 | 0.00 | 0.24 | 0.00 | 82 | 1010.7 |
| 20260508051535 | 40 | 177 | 0.0 | 0.0 | 0.00 | 0.24 | 0.00 | 83 | 1010.5 |
| 20260508050015 | 40 | 177 | 0.0 | 0.0 | 0.00 | 0.24 | 0.00 | 84 | 1010.5 |
| 20260508044514 | 40 | 177 | 0.0 | 0.0 | 0.00 | 0.24 | 0.00 | 84 | 1010.6 |
| 20260508043058 | 40 | 177 | 0.0 | 0.0 | 0.00 | 0.24 | 0.00 | 84 | 1010.7 |
| 20260508041553 | 39 | 177 | 0.0 | 0.0 | 0.00 | 0.24 | 0.00 | 85 | 1010.9 |
| 20260508040046 | 40 | 177 | 0.0 | 0.0 | 0.00 | 0.24 | 0.24 | 83 | 1010.9 |
| 20260508034539 | 40 | 177 | 0.0 | 0.0 | 0.00 | 0.24 | 0.24 | 84 | 1011.0 |
| 20260508033037 | 41 | 177 | 0.0 | 0.0 | 0.00 | 0.24 | 0.24 | 82 | 1011.1 |
| 20260508031636 | 41 | 177 | 0.0 | 0.0 | 0.00 | 0.24 | 0.24 | 82 | 1011.2 |
| 20260508030033 | 42 | 177 | 0.0 | 0.0 | 0.00 | 0.25 | 0.24 | 80 | 1011.1 |
| 20260508024543 | 42 | 177 | 0.0 | 0.0 | 0.00 | 0.25 | 0.24 | 79 | 1011.0 |
| 20260508023028 | 43 | 177 | 0.0 | 0.0 | 0.00 | 0.25 | 0.24 | 77 | 1010.9 |
| 20260508021527 | 44 | 177 | 0.0 | 0.0 | 0.00 | 0.25 | 0.24 | 75 | 1010.9 |
| 20260508020006 | 45 | 177 | 0.0 | 0.0 | 0.00 | 0.25 | 0.24 | 71 | 1010.9 |
| 20260508014503 | 47 | 177 | 0.0 | 0.0 | 0.00 | 0.25 | 0.24 | 70 | 1010.7 |
| 20260508013046 | 47 | 177 | 0.0 | 0.0 | 0.00 | 0.25 | 0.24 | 69 | 1010.6 |
| 20260508011543 | 48 | 177 | 0.0 | 0.0 | 0.00 | 0.25 | 0.24 | 67 | 1010.6 |
| 20260508010033 | 48 | 186 | 0.0 | 0.0 | 0.00 | 0.25 | 0.24 | 67 | 1010.5 |
| 20260508004526 | 49 | 286 | 0.0 | 0.0 | 0.00 | 0.25 | 0.24 | 64 | 1010.2 |
| 20260508003014 | 50 | 286 | 0.0 | 0.0 | 0.00 | 0.25 | 0.24 | 61 | 1009.9 |
| 20260508001513 | 51 | 285 | 0.0 | 0.0 | 0.00 | 0.25 | 0.24 | 55 | 1009.7 |
| 20260508000013 | 53 | 196 | 0.0 | 0.0 | 0.00 | 0.25 | 0.24 | 52 | 1009.6 |
| 20260507234516 | 55 | 273 | 0.0 | 4.0 | 0.00 | 0.25 | 0.24 | 48 | 1009.4 |
| 20260507233025 | 56 | 261 | 0.0 | 6.0 | 0.00 | 0.25 | 0.24 | 46 | 1009.3 |
| 20260507231509 | 57 | 114 | 0.0 | 5.0 | 0.00 | 0.25 | 0.24 | 46 | 1009.2 |
| 20260507230008 | 57 | 318 | 0.0 | 3.0 | 0.00 | 0.25 | 0.24 | 46 | 1009.0 |
| 20260507224508 | 58 | 264 | 1.0 | 7.0 | 0.00 | 0.25 | 0.24 | 44 | 1009.0 |
| 20260507223050 | 60 | 288 | 0.0 | 7.0 | 0.00 | 0.25 | 0.24 | 44 | 1009.0 |
| 20260507221550 | 62 | 105 | 0.0 | 8.0 | 0.00 | 0.25 | 0.24 | 42 | 1008.9 |
| 20260507220033 | 63 | 292 | 0.0 | 6.0 | 0.00 | 0.25 | 0.24 | 43 | 1008.8 |
| 20260507214534 | 62 | 283 | 3.0 | 10.0 | 0.00 | 0.25 | 0.24 | 40 | 1008.7 |
| 20260507213015 | 64 | 138 | 1.0 | 6.0 | 0.00 | 0.25 | 0.24 | 41 | 1008.6 |
| 20260507211520 | 63 | 281 | 1.0 | 7.0 | 0.00 | 0.25 | 0.24 | 38 | 1008.4 |
| 20260507204557 | 63 | 250 | 2.0 | 8.0 | 0.00 | 0.28 | 0.24 | 43 | 1008.3 |
| 20260507203045 | 64 | 300 | 1.0 | 9.0 | 0.00 | 0.28 | 0.24 | 40 | 1008.4 |
| 20260507201537 | 63 | 297 | 2.0 | 5.0 | 0.00 | 0.28 | 0.24 | 42 | 1008.4 |
| 20260507200022 | 62 | 278 | 0.0 | 9.0 | 0.00 | 0.28 | 0.24 | 44 | 1008.4 |
| 20260507194522 | 63 | 274 | 0.0 | 6.0 | 0.00 | 0.28 | 0.24 | 44 | 1008.6 |
| 20260507193022 | 62 | 243 | 1.0 | 10.0 | 0.00 | 0.28 | 0.24 | 41 | 1008.7 |
| 20260507191518 | 63 | 289 | 2.0 | 8.0 | 0.00 | 0.28 | 0.24 | 45 | 1008.8 |
| 20260507190016 | 62 | 6 | 2.0 | 7.0 | 0.00 | 0.31 | 0.24 | 38 | 1008.9 |
| 20260507184515 | 62 | 257 | 0.0 | 8.0 | 0.00 | 0.31 | 0.24 | 45 | 1009.1 |
| 20260507183014 | 62 | 122 | 0.0 | 11.0 | 0.00 | 0.31 | 0.24 | 46 | 1009.3 |
| 20260507181513 | 62 | 188 | 0.0 | 6.0 | 0.00 | 0.31 | 0.24 | 45 | 1009.3 |
| 20260507180054 | 62 | 285 | 3.0 | 13.0 | 0.00 | 0.38 | 0.24 | 41 | 1009.6 |
| 20260507174553 | 61 | 57 | 1.0 | 5.0 | 0.00 | 0.38 | 0.24 | 42 | 1009.8 |
| 20260507173042 | 62 | 275 | 1.0 | 8.0 | 0.00 | 0.38 | 0.24 | 40 | 1010.1 |
| 20260507171541 | 61 | 55 | 3.0 | 9.0 | 0.00 | 0.38 | 0.24 | 42 | 1010.3 |
| 20260507170040 | 61 | 1 | 2.0 | 8.0 | 0.00 | 0.38 | 0.24 | 42 | 1010.3 |
| 20260507164548 | 60 | 311 | 1.0 | 8.0 | 0.00 | 0.38 | 0.24 | 43 | 1010.5 |
| 20260507163035 | 60 | 310 | 2.0 | 8.0 | 0.00 | 0.38 | 0.24 | 46 | 1010.6 |
| 20260507161535 | 59 | 143 | 3.0 | 10.0 | 0.00 | 0.38 | 0.24 | 44 | 1010.9 |
| 20260507160033 | 59 | 308 | 3.0 | 11.0 | 0.00 | 0.38 | 0.24 | 46 | 1011.1 |
| 20260507154531 | 59 | 6 | 2.0 | 8.0 | 0.00 | 0.38 | 0.24 | 42 | 1011.1 |
| 20260507153028 | 58 | 347 | 1.0 | 10.0 | 0.00 | 0.38 | 0.24 | 47 | 1011.3 |
| 20260507151509 | 57 | 131 | 1.0 | 12.0 | 0.00 | 0.38 | 0.24 | 47 | 1011.4 |
| 20260507150019 | 57 | 44 | 2.0 | 10.0 | 0.00 | 0.38 | 0.24 | 45 | 1011.4 |
| 20260507144549 | 57 | 278 | 3.0 | 9.0 | 0.00 | 0.38 | 0.24 | 47 | 1011.4 |
| 20260507143048 | 56 | 294 | 3.0 | 11.0 | 0.00 | 0.38 | 0.24 | 51 | 1011.4 |
| 20260507141525 | 55 | 304 | 1.0 | 7.0 | 0.00 | 0.38 | 0.24 | 55 | 1011.4 |
| 20260507140027 | 54 | 233 | 1.0 | 6.0 | 0.00 | 0.38 | 0.24 | 58 | 1011.6 |
| 20260507134509 | 55 | 311 | 3.0 | 11.0 | 0.00 | 0.38 | 0.24 | 57 | 1011.2 |